Terminal Aerodrome Forecast
Issued by NWS Jackson, MS

Home | Current Version | Previous Version | Text Only | Print | Product List | Glossary On
Versions: 1 2 3 4 5 6 7 8 9 10 11 12 13 14 15 16 17 18 19
844
FTUS44 KJAN 240520
TAFJAN
TAF
KJAN 240520Z 2406/2506 19004KT P6SM -RA OVC090
     FM240800 25008KT P6SM BKN015 OVC060
     FM241300 29010KT P6SM SCT100
     FM241400 28014G21KT P6SM BKN040
     FM250000 27008KT P6SM SCT250=

USA.gov is the U.S. government's official web portal to all federal, state and local government web resources and services.